Location: Unspecified
(0.0000°N, 0.0000°E)
Time: 11:35:50
(UTC+00:00)

Explorer 11/Cluster Stage 4 - Pass Details

Date: 03 October 2020
Orbit: 467 x 1258 km, 28.8° (Epoch: 28 October)

Event Time Altitude Azimuth Distance (km) Brightness Sun altitude
Rises 07:23:44 0° 290° (WNW) 4,099 9.7 23.6°
Reaches altitude 10° 07:26:38 10° 286° (WNW) 3,186 9.2 24.4°
Maximum altitude 07:34:34 54° 211° (SSW) 1,493 8.2 26.3°
Drops below altitude 10° 07:42:22 10° 135° (SE) 3,121 10.5 28.3°
Sets 07:45:11 0° 131° (SE) 4,011 11.0 29.0°
